This is the latest recevied weather packets stored in our database for station/object N0HEQ. If no packets are shown the sender has not sent any weather packets the latest 10 day(s).
| Time | Temp. | Humidity | Pressure | Rain* | Wind** | Luminosity | Snow |
|---|---|---|---|---|---|---|---|
| 1778021675 | 1.11° C | 96% | 1015.6 hPa | 0 mm | - | 11 W/m² | - |
| 1778021370 | 1.67° C | 96% | 1015.4 hPa | 0 mm | - | 22 W/m² | - |
| 1778021067 | 2.22° C | 96% | 1015 hPa | 0 mm | - | 32 W/m² | - |
| 1778020764 | 2.22° C | 96% | 1014.8 hPa | 0 mm | - | 39 W/m² | - |
| 1778020461 | 2.22° C | 96% | 1014.6 hPa | 0 mm | - | 33 W/m² | - |
| 1778020158 | 2.22° C | 96% | 1014.7 hPa | 0 mm | - | 26 W/m² | - |
| 1778019854 | 2.22° C | 95% | 1014.6 hPa | 0 mm | - | 31 W/m² | - |
| 1778019550 | 2.78° C | 95% | 1014.6 hPa | 0 mm | - | 29 W/m² | - |
| 1778019248 | 2.78° C | 96% | 1014.3 hPa | 0 mm | - | 44 W/m² | - |
| 1778018945 | 2.78° C | 95% | 1014.1 hPa | 0 mm | - | 56 W/m² | - |
| 1778018641 | 2.78° C | 95% | 1014.3 hPa | 0 mm | - | 64 W/m² | - |
| 1778018339 | 3.33° C | 95% | 1014.4 hPa | 0 mm | - | 60 W/m² | - |
| 1778018037 | 3.33° C | 95% | 1014.3 hPa | 0 mm | - | 47 W/m² | - |
| 1778017735 | 3.33° C | 94% | 1014.2 hPa | 0 mm | - | 56 W/m² | - |
| 1778017432 | 3.33° C | 94% | 1014.6 hPa | 0 mm | - | 68 W/m² | - |
| 1778017129 | 3.89° C | 94% | 1014.6 hPa | 0 mm | - | 42 W/m² | - |
| 1778016827 | 3.89° C | 94% | 1014.4 hPa | 0 mm | - | 41 W/m² | - |
| 1778016523 | 3.89° C | 94% | 1014.4 hPa | 0 mm | - | 51 W/m² | - |
| 1778016220 | 3.89° C | 94% | 1014.6 hPa | 0 mm | - | 61 W/m² | - |
| 1778015916 | 3.89° C | 94% | 1014.6 hPa | 0 mm | - | 42 W/m² | - |
| 1778015614 | 3.89° C | 94% | 1014.2 hPa | 0 mm | - | 58 W/m² | - |
| 1778015310 | 3.89° C | 94% | 1014.4 hPa | 0 mm | - | 58 W/m² | - |
| 1778015007 | 3.89° C | 94% | 1014.7 hPa | 0 mm | - | 66 W/m² | - |
| 1778014704 | 4.44° C | 94% | 1014.7 hPa | 0 mm | - | 38 W/m² | - |
| 1778014402 | 4.44° C | 93% | 1014.9 hPa | 0 mm | - | 61 W/m² | - |
* Rain latest hour (hover to see other rain measurements)
** Current wind speed in m/s (hover to see current wind gust speed)